Time,TemperatureF,DewpointF,PressureIn,WindDirection,WindDirectionDegrees,WindSpeedMPH,WindSpeedGustMPH,Humidity,HourlyPrecipIn,Conditions,Clouds,dailyrainin,SoftwareType,DateUTC
2013-01-23 00:01:00,47.0,29.0,30.19,NW,323,0.0,0.0,49,0.00,,,0.00,,2013-01-23 06:01:00,
2013-01-23 00:02:00,47.0,29.0,30.19,NNE,14,0.0,0.0,50,0.00,,,0.00,,2013-01-23 06:02:00,
2013-01-23 00:12:00,47.0,29.0,30.19,NNE,14,0.0,0.0,50,0.00,,,0.00,,2013-01-23 06:12:00,
2013-01-23 00:22:00,47.0,29.0,30.19,NW,323,0.0,0.0,49,0.00,,,0.00,,2013-01-23 06:22:00,
2013-01-23 00:32:00,47.0,29.0,30.19,NW,323,0.0,0.0,49,0.00,,,0.00,,2013-01-23 06:32:00,
2013-01-23 00:43:00,47.0,29.0,30.19,NW,323,0.0,0.0,49,0.00,,,0.00,,2013-01-23 06:43:00,
2013-01-23 00:53:00,47.0,29.0,30.19,NW,323,0.0,0.0,49,0.00,,,0.00,,2013-01-23 06:53:00,
2013-01-23 01:23:00,45.0,28.0,30.19,NW,312,0.0,0.0,51,0.00,,,0.00,,2013-01-23 07:23:00,
2013-01-23 01:33:00,45.0,28.0,30.19,NW,312,0.0,0.0,51,0.00,,,0.00,,2013-01-23 07:33:00,
2013-01-23 01:43:00,45.0,28.0,30.19,NW,312,0.0,0.0,51,0.00,,,0.00,,2013-01-23 07:43:00,
2013-01-23 01:53:00,46.0,29.0,30.19,NW,311,0.0,0.0,51,0.00,,,0.00,,2013-01-23 07:53:00,
2013-01-23 02:02:00,46.0,29.0,30.19,NW,311,0.0,0.0,51,0.00,,,0.00,,2013-01-23 08:02:00,
2013-01-23 02:13:00,46.0,29.0,30.19,NW,311,0.0,0.0,51,0.00,,,0.00,,2013-01-23 08:13:00,
2013-01-23 02:22:00,46.0,29.0,30.19,NW,309,0.0,2.0,52,0.00,,,0.00,,2013-01-23 08:22:00,
2013-01-23 02:33:00,46.0,29.0,30.19,NW,309,0.0,2.0,52,0.00,,,0.00,,2013-01-23 08:33:00,
2013-01-23 02:43:00,46.0,29.0,30.19,NW,309,0.0,2.0,52,0.00,,,0.00,,2013-01-23 08:43:00,
2013-01-23 02:53:00,46.0,29.0,30.19,NW,308,0.0,0.0,51,0.00,,,0.00,,2013-01-23 08:53:00,
2013-01-23 03:02:00,46.0,29.0,30.19,NW,308,0.0,0.0,51,0.00,,,0.00,,2013-01-23 09:02:00,
2013-01-23 03:12:00,46.0,29.0,30.19,NW,308,0.0,0.0,51,0.00,,,0.00,,2013-01-23 09:12:00,
2013-01-23 03:22:00,46.0,29.0,30.19,WNW,302,0.0,0.0,51,0.00,,,0.00,,2013-01-23 09:22:00,
2013-01-23 03:32:00,46.0,29.0,30.19,WNW,302,0.0,0.0,51,0.00,,,0.00,,2013-01-23 09:32:00,
2013-01-23 03:43:00,46.0,29.0,30.19,WNW,302,0.0,0.0,51,0.00,,,0.00,,2013-01-23 09:43:00,
2013-01-23 03:53:00,46.0,28.0,30.19,NW,304,0.0,0.0,50,0.00,,,0.00,,2013-01-23 09:53:00,
2013-01-23 04:02:00,46.0,28.0,30.19,NW,304,0.0,0.0,50,0.00,,,0.00,,2013-01-23 10:02:00,
2013-01-23 04:12:00,46.0,28.0,30.19,NW,304,0.0,0.0,50,0.00,,,0.00,,2013-01-23 10:12:00,
2013-01-23 04:23:00,46.0,27.0,30.20,NW,304,0.0,0.0,48,0.00,,,0.00,,2013-01-23 10:23:00,
2013-01-23 04:32:00,46.0,27.0,30.20,NW,304,0.0,0.0,48,0.00,,,0.00,,2013-01-23 10:32:00,
2013-01-23 04:43:00,46.0,27.0,30.20,NW,304,0.0,0.0,48,0.00,,,0.00,,2013-01-23 10:43:00,
2013-01-23 04:53:00,47.0,27.0,30.19,NW,304,0.0,0.0,46,0.00,,,0.00,,2013-01-23 10:53:00,
2013-01-23 05:02:00,47.0,27.0,30.19,NW,304,0.0,0.0,46,0.00,,,0.00,,2013-01-23 11:02:00,
2013-01-23 05:12:00,47.0,27.0,30.19,NW,304,0.0,0.0,46,0.00,,,0.00,,2013-01-23 11:12:00,
2013-01-23 05:22:00,47.0,28.0,30.19,NW,304,0.0,0.0,47,0.00,,,0.00,,2013-01-23 11:22:00,
2013-01-23 05:33:00,47.0,28.0,30.19,NW,304,0.0,0.0,47,0.00,,,0.00,,2013-01-23 11:33:00,
2013-01-23 05:43:00,47.0,28.0,30.19,NW,304,0.0,0.0,47,0.00,,,0.00,,2013-01-23 11:43:00,
2013-01-23 05:53:00,47.0,27.0,30.20,NW,304,0.0,0.0,46,0.00,,,0.00,,2013-01-23 11:53:00,
2013-01-23 06:03:00,47.0,27.0,30.20,NW,304,0.0,0.0,46,0.00,,,0.00,,2013-01-23 12:03:00,
2013-01-23 06:12:00,47.0,27.0,30.20,NW,304,0.0,0.0,46,0.00,,,0.00,,2013-01-23 12:12:00,
2013-01-23 06:22:00,46.0,27.0,30.21,NW,304,0.0,0.0,48,0.00,,,0.00,,2013-01-23 12:22:00,
2013-01-23 06:33:00,46.0,27.0,30.21,NW,304,0.0,0.0,48,0.00,,,0.00,,2013-01-23 12:33:00,
2013-01-23 06:43:00,46.0,27.0,30.21,NW,304,0.0,0.0,48,0.00,,,0.00,,2013-01-23 12:43:00,
2013-01-23 06:53:00,45.0,28.0,30.21,NW,304,0.0,0.0,52,0.00,,,0.00,,2013-01-23 12:53:00,
2013-01-23 07:03:00,45.0,28.0,30.21,NW,304,0.0,0.0,52,0.00,,,0.00,,2013-01-23 13:03:00,
2013-01-23 07:13:00,45.0,28.0,30.21,NW,304,0.0,0.0,52,0.00,,,0.00,,2013-01-23 13:13:00,
2013-01-23 07:23:00,46.0,30.0,30.23,NW,305,0.0,0.0,54,0.00,,,0.00,,2013-01-23 13:23:00,
2013-01-23 07:33:00,46.0,30.0,30.23,NW,305,0.0,0.0,54,0.00,,,0.00,,2013-01-23 13:33:00,
2013-01-23 07:43:00,46.0,30.0,30.23,NW,305,0.0,0.0,54,0.00,,,0.00,,2013-01-23 13:43:00,
2013-01-23 07:53:00,47.0,30.0,30.24,NW,305,0.0,0.0,52,0.00,,,0.00,,2013-01-23 13:53:00,
2013-01-23 08:02:00,47.0,30.0,30.24,NW,305,0.0,0.0,52,0.00,,,0.00,,2013-01-23 14:02:00,
2013-01-23 08:12:00,47.0,30.0,30.24,NW,305,0.0,0.0,52,0.00,,,0.00,,2013-01-23 14:12:00,
2013-01-23 08:23:00,47.0,30.0,30.25,NW,305,0.0,0.0,52,0.00,,,0.00,,2013-01-23 14:23:00,
2013-01-23 08:33:00,47.0,30.0,30.25,NW,305,0.0,0.0,52,0.00,,,0.00,,2013-01-23 14:33:00,
2013-01-23 08:43:00,47.0,30.0,30.25,NW,305,0.0,0.0,52,0.00,,,0.00,,2013-01-23 14:43:00,
2013-01-23 08:53:00,48.0,31.0,30.24,NW,305,0.0,0.0,51,0.00,,,0.00,,2013-01-23 14:53:00,
2013-01-23 09:03:00,48.0,31.0,30.24,NW,305,0.0,0.0,51,0.00,,,0.00,,2013-01-23 15:03:00,
2013-01-23 09:12:00,48.0,31.0,30.24,NW,305,0.0,0.0,51,0.00,,,0.00,,2013-01-23 15:12:00,
2013-01-23 09:23:00,50.0,31.0,30.26,WNW,298,0.0,0.0,48,0.00,,,0.00,,2013-01-23 15:23:00,
2013-01-23 09:33:00,50.0,31.0,30.26,WNW,298,0.0,0.0,48,0.00,,,0.00,,2013-01-23 15:33:00,
2013-01-23 09:43:00,50.0,31.0,30.26,WNW,298,0.0,0.0,48,0.00,,,0.00,,2013-01-23 15:43:00,
2013-01-23 09:53:00,54.0,33.0,30.27,WSW,244,0.0,0.0,45,0.00,,,0.00,,2013-01-23 15:53:00,
2013-01-23 10:03:00,54.0,33.0,30.27,WSW,244,0.0,0.0,45,0.00,,,0.00,,2013-01-23 16:03:00,
2013-01-23 10:12:00,54.0,33.0,30.27,WSW,244,0.0,0.0,45,0.00,,,0.00,,2013-01-23 16:12:00,
2013-01-23 10:23:00,58.0,31.0,30.29,WSW,246,0.0,0.0,36,0.00,,,0.00,,2013-01-23 16:23:00,
2013-01-23 10:32:00,58.0,31.0,30.29,WSW,246,0.0,0.0,36,0.00,,,0.00,,2013-01-23 16:32:00,
2013-01-23 10:43:00,58.0,31.0,30.29,WSW,246,0.0,0.0,36,0.00,,,0.00,,2013-01-23 16:43:00,
2013-01-23 10:53:00,62.0,29.0,30.29,SW,223,0.0,7.0,28,0.00,,,0.00,,2013-01-23 16:53:00,
2013-01-23 11:03:00,62.0,29.0,30.29,SW,223,0.0,7.0,28,0.00,,,0.00,,2013-01-23 17:03:00,
2013-01-23 11:12:00,62.0,29.0,30.29,SW,223,0.0,7.0,28,0.00,,,0.00,,2013-01-23 17:12:00,
2013-01-23 11:23:00,65.0,30.0,30.29,SW,222,7.0,11.0,27,0.00,,,0.00,,2013-01-23 17:23:00,
2013-01-23 11:33:00,65.0,30.0,30.29,SW,222,7.0,11.0,27,0.00,,,0.00,,2013-01-23 17:33:00,
2013-01-23 11:43:00,65.0,30.0,30.29,SW,222,7.0,11.0,27,0.00,,,0.00,,2013-01-23 17:43:00,
2013-01-23 11:53:00,68.0,32.0,30.29,WSW,246,4.0,10.0,26,0.00,,,0.00,,2013-01-23 17:53:00,
2013-01-23 12:03:00,68.0,32.0,30.29,WSW,246,4.0,10.0,26,0.00,,,0.00,,2013-01-23 18:03:00,
2013-01-23 12:12:00,68.0,32.0,30.29,WSW,246,4.0,10.0,26,0.00,,,0.00,,2013-01-23 18:12:00,
2013-01-23 12:23:00,69.0,32.0,30.27,WSW,237,7.0,16.0,25,0.00,,,0.00,,2013-01-23 18:23:00,
2013-01-23 12:33:00,69.0,32.0,30.27,WSW,237,7.0,16.0,25,0.00,,,0.00,,2013-01-23 18:33:00,
2013-01-23 12:44:00,69.0,32.0,30.27,WSW,237,7.0,16.0,25,0.00,,,0.00,,2013-01-23 18:44:00,
2013-01-23 12:53:00,70.0,34.0,30.26,West,265,6.0,12.0,26,0.00,,,0.00,,2013-01-23 18:53:00,
2013-01-23 13:01:00,72.0,33.0,30.24,WNW,298,12.0,16.0,24,0.00,,,0.00,,2013-01-23 19:01:00,
2013-01-23 13:03:00,70.0,34.0,30.26,West,265,6.0,12.0,26,0.00,,,0.00,,2013-01-23 19:03:00,
2013-01-23 13:13:00,70.0,34.0,30.26,West,265,6.0,12.0,26,0.00,,,0.00,,2013-01-23 19:13:00,
2013-01-23 13:23:00,72.0,33.0,30.24,WNW,298,12.0,16.0,24,0.00,,,0.00,,2013-01-23 19:23:00,
2013-01-23 13:33:00,72.0,33.0,30.24,WNW,298,12.0,16.0,24,0.00,,,0.00,,2013-01-23 19:33:00,
2013-01-23 13:43:00,72.0,33.0,30.24,WNW,298,12.0,16.0,24,0.00,,,0.00,,2013-01-23 19:43:00,
2013-01-23 13:53:00,72.0,33.0,30.24,WNW,298,12.0,16.0,24,0.00,,,0.00,,2013-01-23 19:53:00,
2013-01-23 14:23:00,72.0,32.0,30.21,WSW,250,4.0,14.0,23,0.00,,,0.00,,2013-01-23 20:23:00,
2013-01-23 14:33:00,72.0,32.0,30.21,WSW,250,4.0,14.0,23,0.00,,,0.00,,2013-01-23 20:33:00,
2013-01-23 14:43:00,72.0,32.0,30.21,WSW,250,4.0,14.0,23,0.00,,,0.00,,2013-01-23 20:43:00,
2013-01-23 14:53:00,73.0,32.0,30.20,WSW,240,3.0,18.0,22,0.00,,,0.00,,2013-01-23 20:53:00,
2013-01-23 15:03:00,73.0,32.0,30.20,WSW,240,3.0,18.0,22,0.00,,,0.00,,2013-01-23 21:03:00,
2013-01-23 15:12:00,73.0,32.0,30.20,WSW,240,3.0,18.0,22,0.00,,,0.00,,2013-01-23 21:12:00,
2013-01-23 15:23:00,73.0,33.0,30.19,West,270,2.0,17.0,23,0.00,,,0.00,,2013-01-23 21:23:00,
2013-01-23 15:33:00,73.0,33.0,30.19,West,270,2.0,17.0,23,0.00,,,0.00,,2013-01-23 21:33:00,
2013-01-23 15:43:00,73.0,33.0,30.19,West,270,2.0,17.0,23,0.00,,,0.00,,2013-01-23 21:43:00,
2013-01-23 15:53:00,73.0,32.0,30.19,SE,144,5.0,13.0,22,0.00,,,0.00,,2013-01-23 21:53:00,
2013-01-23 16:02:00,73.0,32.0,30.19,SE,144,5.0,13.0,22,0.00,,,0.00,,2013-01-23 22:02:00,
2013-01-23 16:12:00,73.0,32.0,30.19,SE,144,5.0,13.0,22,0.00,,,0.00,,2013-01-23 22:12:00,
2013-01-23 16:23:00,73.0,32.0,30.18,South,174,1.0,16.0,22,0.00,,,0.00,,2013-01-23 22:23:00,
2013-01-23 16:33:00,73.0,32.0,30.18,South,174,1.0,16.0,22,0.00,,,0.00,,2013-01-23 22:33:00,
2013-01-23 16:43:00,73.0,32.0,30.18,South,174,1.0,16.0,22,0.00,,,0.00,,2013-01-23 22:43:00,
2013-01-23 16:53:00,73.0,33.0,30.19,South,189,2.0,10.0,23,0.00,,,0.00,,2013-01-23 22:53:00,
2013-01-23 17:03:00,73.0,33.0,30.19,South,189,2.0,10.0,23,0.00,,,0.00,,2013-01-23 23:03:00,
2013-01-23 17:12:00,73.0,33.0,30.19,South,189,2.0,10.0,23,0.00,,,0.00,,2013-01-23 23:12:00,
2013-01-23 17:23:00,72.0,33.0,30.18,SW,226,1.0,13.0,24,0.00,,,0.00,,2013-01-23 23:23:00,
2013-01-23 17:33:00,72.0,33.0,30.18,SW,226,1.0,13.0,24,0.00,,,0.00,,2013-01-23 23:33:00,
2013-01-23 17:43:00,72.0,33.0,30.18,SW,226,1.0,13.0,24,0.00,,,0.00,,2013-01-23 23:43:00,
2013-01-23 17:53:00,71.0,33.0,30.19,West,263,3.0,8.0,25,0.00,,,0.00,,2013-01-23 23:53:00,
2013-01-23 18:03:00,71.0,33.0,30.19,West,263,3.0,8.0,25,0.00,,,0.00,,2013-01-24 00:03:00,
2013-01-23 18:12:00,71.0,33.0,30.19,West,263,3.0,8.0,25,0.00,,,0.00,,2013-01-24 00:12:00,
2013-01-23 18:22:00,67.0,33.0,30.19,South,189,0.0,13.0,28,0.00,,,0.00,,2013-01-24 00:22:00,
2013-01-23 18:32:00,67.0,33.0,30.19,South,189,0.0,13.0,28,0.00,,,0.00,,2013-01-24 00:32:00,
2013-01-23 18:43:00,67.0,33.0,30.19,South,189,0.0,13.0,28,0.00,,,0.00,,2013-01-24 00:43:00,
2013-01-23 18:53:00,64.0,31.0,30.21,South,188,2.0,11.0,29,0.00,,,0.00,,2013-01-24 00:53:00,
2013-01-23 19:03:00,64.0,31.0,30.21,South,188,2.0,11.0,29,0.00,,,0.00,,2013-01-24 01:03:00,
2013-01-23 19:12:00,64.0,31.0,30.21,South,188,2.0,11.0,29,0.00,,,0.00,,2013-01-24 01:12:00,
2013-01-23 19:23:00,63.0,31.0,30.20,WNW,291,0.0,0.0,30,0.00,,,0.00,,2013-01-24 01:23:00,
2013-01-23 19:33:00,63.0,31.0,30.20,WNW,291,0.0,0.0,30,0.00,,,0.00,,2013-01-24 01:33:00,
2013-01-23 19:43:00,63.0,31.0,30.20,WNW,291,0.0,0.0,30,0.00,,,0.00,,2013-01-24 01:43:00,
2013-01-23 19:52:00,61.0,31.0,30.21,WNW,287,1.0,6.0,32,0.00,,,0.00,,2013-01-24 01:52:00,
2013-01-23 20:00:00,59.0,31.0,30.22,WNW,289,0.0,0.0,34,0.00,,,0.00,,2013-01-24 02:00:00,
2013-01-23 20:02:00,61.0,31.0,30.21,WNW,287,1.0,6.0,32,0.00,,,0.00,,2013-01-24 02:02:00,
2013-01-23 20:12:00,61.0,31.0,30.21,WNW,287,1.0,6.0,32,0.00,,,0.00,,2013-01-24 02:12:00,
2013-01-23 20:22:00,59.0,31.0,30.22,WNW,289,0.0,0.0,34,0.00,,,0.00,,2013-01-24 02:22:00,
2013-01-23 20:33:00,59.0,31.0,30.22,WNW,289,0.0,0.0,34,0.00,,,0.00,,2013-01-24 02:33:00,
2013-01-23 20:42:00,59.0,31.0,30.22,WNW,289,0.0,0.0,34,0.00,,,0.00,,2013-01-24 02:42:00,
2013-01-23 20:52:00,59.0,31.0,30.22,WNW,289,0.0,0.0,34,0.00,,,0.00,,2013-01-24 02:52:00,
2013-01-23 21:53:00,58.0,33.0,30.22,WNW,284,0.0,7.0,38,0.00,,,0.00,,2013-01-24 03:53:00,
2013-01-23 22:02:00,58.0,33.0,30.22,WNW,284,0.0,7.0,38,0.00,,,0.00,,2013-01-24 04:02:00,
2013-01-23 22:12:00,58.0,33.0,30.22,WNW,284,0.0,7.0,38,0.00,,,0.00,,2013-01-24 04:12:00,
2013-01-23 22:22:00,57.0,32.0,30.23,WNW,284,0.0,0.0,39,0.00,,,0.00,,2013-01-24 04:22:00,
2013-01-23 22:32:00,57.0,32.0,30.23,WNW,284,0.0,0.0,39,0.00,,,0.00,,2013-01-24 04:32:00,
2013-01-23 22:43:00,57.0,32.0,30.23,WNW,284,0.0,0.0,39,0.00,,,0.00,,2013-01-24 04:43:00,
2013-01-23 22:53:00,54.0,32.0,30.22,WNW,284,0.0,0.0,43,0.00,,,0.00,,2013-01-24 04:53:00,
2013-01-23 23:00:00,53.0,33.0,30.22,SSW,199,0.0,0.0,46,0.00,,,0.00,,2013-01-24 05:00:00,
2013-01-23 23:03:00,54.0,32.0,30.22,WNW,284,0.0,0.0,43,0.00,,,0.00,,2013-01-24 05:03:00,
2013-01-23 23:12:00,54.0,32.0,30.22,WNW,284,0.0,0.0,43,0.00,,,0.00,,2013-01-24 05:12:00,
2013-01-23 23:22:00,53.0,33.0,30.22,SSW,199,0.0,0.0,46,0.00,,,0.00,,2013-01-24 05:22:00,
2013-01-23 23:32:00,53.0,33.0,30.22,SSW,199,0.0,0.0,46,0.00,,,0.00,,2013-01-24 05:32:00,
2013-01-23 23:43:00,53.0,33.0,30.22,SSW,199,0.0,0.0,46,0.00,,,0.00,,2013-01-24 05:43:00,
2013-01-23 23:53:00,53.0,33.0,30.22,SSW,199,0.0,0.0,46,0.00,,,0.00,,2013-01-24 05:53:00,